| time (UTC) | temp F | wind direction | speed knots | gust knots | rain 1hr in | rain 24hr in | rain mn in | humidity % | barometer mb |
| 20260901113030 | 49 | 180 | 1.7 | 3.5 | 0.00 | 0.00 | 0.00 | 78 | 1012.5 |
| 20260901111532 | 50 | 168 | 1.7 | 5.2 | 0.00 | 0.00 | 0.00 | 77 | 1012.4 |
| 20260901104609 | 49 | 167 | 1.7 | 3.5 | 0.00 | 0.00 | 0.00 | 76 | 1012.5 |
| 20260901103031 | 50 | 180 | 1.7 | 3.5 | 0.00 | 0.00 | 0.00 | 74 | 1012.6 |
| 20260901100108 | 51 | 158 | 1.7 | 4.3 | 0.00 | 0.00 | 0.00 | 71 | 1012.6 |
| 20260901094529 | 51 | 166 | 0.9 | 3.5 | 0.00 | 0.00 | 0.00 | 71 | 1012.5 |
| 20260901093029 | 50 | 162 | 1.7 | 3.5 | 0.00 | 0.00 | 0.00 | 72 | 1012.5 |
| 20260901091607 | 50 | 170 | 1.7 | 5.2 | 0.00 | 0.00 | 0.00 | 72 | 1012.5 |
| 20260901090030 | 50 | 179 | 2.6 | 4.3 | 0.00 | 0.00 | 0.00 | 72 | 1012.4 |
| 20260901084602 | 50 | 149 | 1.7 | 3.5 | 0.00 | 0.00 | 0.00 | 71 | 1012.4 |
| 20260901083029 | 51 | 164 | 1.7 | 2.6 | 0.00 | 0.00 | 0.00 | 69 | 1012.6 |
| 20260901080030 | 52 | 162 | 1.7 | 3.5 | 0.00 | 0.00 | 0.00 | 68 | 1012.6 |
| 20260901073031 | 53 | 150 | 1.7 | 3.5 | 0.00 | 0.00 | 0.00 | 63 | 1012.4 |
| 20260901064531 | 55 | 153 | 2.6 | 5.2 | 0.00 | 0.00 | 0.00 | 58 | 1012.6 |
| 20260901063031 | 56 | 163 | 2.6 | 6.1 | 0.00 | 0.00 | 0.00 | 57 | 1012.7 |
| 20260901061530 | 57 | 154 | 2.6 | 6.1 | 0.00 | 0.00 | 0.00 | 55 | 1012.9 |
| 20260901054532 | 57 | 154 | 3.5 | 5.2 | 0.00 | 0.00 | 0.00 | 57 | 1012.9 |
| 20260901053031 | 57 | 156 | 2.6 | 4.3 | 0.00 | 0.00 | 0.00 | 58 | 1012.9 |
| 20260901050032 | 57 | 171 | 1.7 | 5.2 | 0.00 | 0.00 | 0.00 | 59 | 1012.9 |
| 20260901044532 | 59 | 138 | 1.7 | 3.5 | 0.00 | 0.00 | 0.00 | 57 | 1012.9 |
| 20260901043030 | 60 | 170 | 3.5 | 6.1 | 0.00 | 0.00 | 0.00 | 55 | 1012.7 |
| 20260901040030 | 60 | 158 | 3.5 | 6.1 | 0.00 | 0.00 | 0.00 | 59 | 1012.5 |
| 20260901034533 | 62 | 167 | 2.6 | 5.2 | 0.00 | 0.00 | 0.00 | 59 | 1012.5 |
| 20260901033033 | 65 | 167 | 1.7 | 3.5 | 0.00 | 0.00 | 0.00 | 53 | 1012.2 |
| 20260901031606 | 66 | 168 | 2.6 | 7.8 | 0.00 | 0.00 | 0.00 | 53 | 1012.2 |
| 20260901030033 | 66 | 167 | 3.5 | 5.2 | 0.00 | 0.00 | 0.00 | 54 | 1012.1 |
| 20260901023102 | 67 | 178 | 4.3 | 6.1 | 0.00 | 0.00 | 0.00 | 55 | 1011.9 |
| 20260901021607 | 68 | 178 | 3.5 | 5.2 | 0.00 | 0.00 | 0.00 | 53 | 1011.8 |
| 20260901020031 | 70 | 183 | 1.7 | 4.3 | 0.00 | 0.00 | 0.00 | 46 | 1011.8 |
| 20260901014529 | 71 | 171 | 3.5 | 6.1 | 0.00 | 0.00 | 0.00 | 44 | 1011.8 |
| 20260901013105 | 74 | 224 | 2.6 | 6.1 | 0.00 | 0.00 | 0.00 | 38 | 1011.7 |
| 20260901011531 | 76 | 250 | 4.3 | 8.7 | 0.00 | 0.00 | 0.00 | 36 | 1011.7 |
| 20260901010028 | 77 | 242 | 5.2 | 9.6 | 0.00 | 0.00 | 0.00 | 37 | 1011.7 |
| 20260901004529 | 78 | 252 | 3.5 | 7.0 | 0.00 | 0.00 | 0.00 | 39 | 1011.8 |
| 20260901003033 | 78 | 264 | 1.7 | 7.0 | 0.00 | 0.00 | 0.00 | 39 | 1011.8 |
| 20260901001530 | 79 | 238 | 2.6 | 6.1 | 0.00 | 0.00 | 0.00 | 38 | 1011.9 |
| 20260901000030 | 81 | 218 | 2.6 | 6.1 | 0.00 | 0.00 | 0.00 | 37 | 1012.0 |
| 20260831234530 | 80 | 234 | 0.0 | 4.3 | 0.00 | 0.00 | 0.00 | 35 | 1012.0 |
| 20260831233027 | 81 | 249 | 3.5 | 7.0 | 0.00 | 0.00 | 0.00 | 33 | 1012.1 |
| 20260831230033 | 82 | 205 | 2.6 | 5.2 | 0.00 | 0.00 | 0.00 | 32 | 1012.4 |
| 20260831224532 | 81 | 289 | 3.5 | 8.7 | 0.00 | 0.00 | 0.00 | 32 | 1012.6 |
| 20260831223033 | 82 | 304 | 4.3 | 9.6 | 0.00 | 0.00 | 0.00 | 33 | 1012.7 |
| 20260831221531 | 82 | 287 | 3.5 | 7.0 | 0.00 | 0.00 | 0.00 | 34 | 1012.9 |
| 20260831220030 | 81 | 255 | 2.6 | 7.8 | 0.00 | 0.00 | 0.00 | 35 | 1013.1 |
| 20260831213104 | 81 | 264 | 4.3 | 11.3 | 0.00 | 0.00 | 0.00 | 36 | 1013.4 |
| 20260831211533 | 80 | 263 | 4.3 | 9.6 | 0.00 | 0.00 | 0.00 | 37 | 1013.5 |
| 20260831210030 | 78 | 307 | 3.5 | 11.3 | 0.00 | 0.00 | 0.00 | 39 | 1013.6 |
| 20260831204529 | 77 | 305 | 6.1 | 13.9 | 0.00 | 0.00 | 0.00 | 39 | 1013.7 |
| 20260831203031 | 77 | 294 | 7.0 | 13.0 | 0.00 | 0.00 | 0.00 | 40 | 1013.9 |
| 20260831201532 | 76 | 325 | 4.3 | 11.3 | 0.00 | 0.00 | 0.00 | 41 | 1014.3 |
| 20260831200030 | 76 | 314 | 5.2 | 9.6 | 0.00 | 0.00 | 0.00 | 41 | 1014.5 |
| 20260831194528 | 76 | 296 | 3.5 | 9.6 | 0.00 | 0.00 | 0.00 | 41 | 1014.7 |
| 20260831193031 | 75 | 301 | 4.3 | 11.3 | 0.00 | 0.00 | 0.00 | 42 | 1014.9 |
| 20260831191530 | 74 | 303 | 2.6 | 7.8 | 0.00 | 0.00 | 0.00 | 45 | 1015.2 |
| 20260831190034 | 71 | 304 | 3.5 | 8.7 | 0.00 | 0.00 | 0.00 | 51 | 1015.8 |
| 20260831183031 | 70 | 292 | 2.6 | 6.1 | 0.00 | 0.00 | 0.00 | 55 | 1016.1 |
| 20260831181529 | 68 | 279 | 1.7 | 5.2 | 0.00 | 0.00 | 0.00 | 59 | 1016.5 |
| 20260831174527 | 64 | 236 | 0.9 | 4.3 | 0.00 | 0.00 | 0.00 | 64 | 1016.8 |
| 20260831171602 | 62 | 264 | 0.9 | 4.3 | 0.00 | 0.00 | 0.00 | 66 | 1017.1 |
| 20260831170031 | 61 | 276 | 0.0 | 3.5 | 0.00 | 0.00 | 0.00 | 68 | 1017.3 |
| 20260831164530 | 60 | 117 | 0.0 | 2.6 | 0.00 | 0.00 | 0.00 | 71 | 1017.5 |
| 20260831163030 | 58 | 296 | 0.0 | 1.7 | 0.00 | 0.00 | 0.00 | 76 | 1017.6 |
| 20260831161531 | 57 | 315 | 0.0 | 0.9 | 0.00 | 0.00 | 0.00 | 81 | 1017.8 |
| 20260831160028 | 54 | 83 | 0.0 | 1.7 | 0.00 | 0.00 | 0.00 | 88 | 1017.9 |
| 20260831153028 | 50 | 157 | 0.0 | 1.7 | 0.00 | 0.00 | 0.00 | 94 | 1017.8 |
| 20260831151531 | 48 | 157 | 0.0 | 1.7 | 0.00 | 0.00 | 0.00 | 95 | 1017.8 |
| 20260831150042 | 45 | 157 | 0.0 | 1.7 | 0.00 | 0.00 | 0.00 | 94 | 1017.7 |
| 20260831144530 | 43 | 162 | 0.9 | 3.5 | 0.00 | 0.00 | 0.00 | 94 | 1017.3 |
| 20260831141531 | 43 | 154 | 1.7 | 3.5 | 0.00 | 0.00 | 0.00 | 94 | 1017.3 |
| 20260831140109 | 43 | 178 | 1.7 | 2.6 | 0.00 | 0.00 | 0.00 | 94 | 1017.2 |
| 20260831134532 | 42 | 160 | 1.7 | 3.5 | 0.00 | 0.00 | 0.00 | 93 | 1017.1 |
| 20260831133032 | 42 | 154 | 1.7 | 2.6 | 0.00 | 0.00 | 0.00 | 93 | 1017.2 |
| 20260831131527 | 43 | 168 | 0.9 | 3.5 | 0.00 | 0.00 | 0.00 | 93 | 1017.3 |
| 20260831130030 | 43 | 172 | 1.7 | 4.3 | 0.00 | 0.00 | 0.00 | 92 | 1017.3 |
| 20260831124531 | 44 | 171 | 1.7 | 4.3 | 0.00 | 0.00 | 0.00 | 92 | 1017.3 |
| 20260831123105 | 44 | 157 | 1.7 | 3.5 | 0.00 | 0.00 | 0.00 | 92 | 1017.2 |
| 20260831120028 | 44 | 164 | 1.7 | 3.5 | 0.00 | 0.00 | 0.00 | 91 | 1017.3 |